User: anonymous
Location: Newsoms
(36.6240°N, 77.1250°W)
Time: 14:15:57
(UTC-04:00)
Language:

BREEZE-M DEB (TANK) - Orbit

View from above orbital plane
View from above orbital plane
View from above satellite
View from above satellite

Ground track
Ground track

The orbit data is extracted from the following two-line orbital elements,

1 29649U 06056B   14204.46290353  .00003806  00000-0  53242-3 0  9659
2 29649 049.5026 284.9129 5428070 223.1868 253.3800 04.94112555135038
Epoch (UTC): 23 July 2014 11:06:34
Eccentricity: 0.5428070
inclination: 49.5026°
perigee height: 279 km
apogee height: 16086 km
right ascension of ascending node: 284.9129°
argument of perigee: 223.1868°
revolutions per day: 4.94112555
mean anomaly at epoch: 253.3800°
orbit number at epoch: 13503

The dashed part of the orbit path shows where the satellite is in the earth's shadow,  

DLR